| time (UTC) | temp F | wind direction | speed MPH | gust MPH | rain 1hr in | rain 24hr in | rain mn in | humidity % | barometer mb |
| 20260505024335 | 69 | 0.0 | 0.0 | 0.00 | 0.00 | 0.00 | 68 | 1002.2 | |
| 20260505023316 | 69 | 0.0 | 0.0 | 0.00 | 0.00 | 0.00 | 68 | 1002.0 | |
| 20260505022316 | 69 | 0.0 | 0.0 | 0.00 | 0.00 | 0.00 | 67 | 1001.8 | |
| 20260505021315 | 69 | 0.0 | 0.0 | 0.00 | 0.00 | 0.00 | 67 | 1001.5 | |
| 20260505020315 | 69 | 0.0 | 0.0 | 0.00 | 0.00 | 0.00 | 66 | 1001.4 | |
| 20260505015315 | 70 | 0.0 | 0.0 | 0.00 | 0.00 | 0.00 | 65 | 1001.3 | |
| 20260505014315 | 70 | 0.0 | 0.0 | 0.00 | 0.00 | 0.00 | 64 | 1001.2 | |
| 20260505013316 | 71 | 0.0 | 1.0 | 0.00 | 0.00 | 0.00 | 61 | 1001.1 | |
| 20260505012316 | 72 | 0.0 | 0.0 | 0.00 | 0.00 | 0.00 | 59 | 1001.0 | |
| 20260505011315 | 74 | 0.0 | 0.0 | 0.00 | 0.00 | 0.00 | 57 | 1001.0 | |
| 20260505010315 | 75 | 0.0 | 0.0 | 0.00 | 0.00 | 0.00 | 55 | 1000.9 | |
| 20260505005316 | 76 | 0.0 | 0.0 | 0.00 | 0.00 | 0.00 | 52 | 1000.8 | |
| 20260505004356 | 77 | 0.0 | 0.0 | 0.00 | 0.00 | 0.00 | 52 | 1000.7 | |
| 20260505003315 | 78 | 0.0 | 1.0 | 0.00 | 0.00 | 0.00 | 50 | 1000.7 | |
| 20260505002315 | 79 | 0.0 | 0.0 | 0.00 | 0.00 | 0.00 | 49 | 1000.6 | |
| 20260505001315 | 79 | 0.0 | 1.0 | 0.00 | 0.00 | 0.00 | 48 | 1000.5 | |
| 20260505000315 | 80 | 158 | 1.0 | 2.0 | 0.00 | 0.00 | 0.00 | 48 | 1000.7 |
| 20260504235315 | 80 | 203 | 1.0 | 3.0 | 0.00 | 0.00 | 0.00 | 47 | 1000.6 |
| 20260504234317 | 80 | 0.0 | 1.0 | 0.00 | 0.00 | 0.00 | 48 | 1000.5 | |
| 20260504233317 | 80 | 225 | 1.0 | 2.0 | 0.00 | 0.00 | 0.00 | 46 | 1000.5 |
| 20260504232317 | 81 | 135 | 2.0 | 5.0 | 0.00 | 0.00 | 0.00 | 46 | 1000.4 |
| 20260504231317 | 81 | 180 | 2.0 | 6.0 | 0.00 | 0.00 | 0.00 | 45 | 1000.4 |
| 20260504230337 | 82 | 248 | 3.0 | 5.0 | 0.00 | 0.00 | 0.00 | 45 | 1000.4 |
| 20260504225317 | 83 | 113 | 4.0 | 9.0 | 0.00 | 0.00 | 0.00 | 44 | 1000.5 |
| 20260504224317 | 83 | 248 | 2.0 | 5.0 | 0.00 | 0.00 | 0.00 | 45 | 1000.4 |
| 20260504223317 | 83 | 225 | 3.0 | 8.0 | 0.00 | 0.00 | 0.00 | 43 | 1000.4 |
| 20260504222317 | 84 | 135 | 1.0 | 4.0 | 0.00 | 0.00 | 0.00 | 42 | 1000.5 |
| 20260504221317 | 85 | 135 | 5.0 | 8.0 | 0.00 | 0.00 | 0.00 | 39 | 1000.6 |
| 20260504220317 | 84 | 225 | 1.0 | 2.0 | 0.00 | 0.00 | 0.00 | 37 | 1000.5 |
| 20260504215317 | 85 | 113 | 4.0 | 6.0 | 0.00 | 0.00 | 0.00 | 34 | 1000.6 |
| 20260504214357 | 85 | 0.0 | 2.0 | 0.00 | 0.00 | 0.00 | 38 | 1000.7 | |
| 20260504213337 | 85 | 68 | 2.0 | 4.0 | 0.00 | 0.00 | 0.00 | 37 | 1000.8 |
| 20260504212337 | 85 | 113 | 1.0 | 2.0 | 0.00 | 0.00 | 0.00 | 36 | 1000.7 |
| 20260504211335 | 85 | 135 | 2.0 | 3.0 | 0.00 | 0.00 | 0.00 | 37 | 1000.7 |
| 20260504210317 | 85 | 225 | 1.0 | 3.0 | 0.00 | 0.00 | 0.00 | 37 | 1000.8 |
| 20260504205337 | 85 | 158 | 1.0 | 2.0 | 0.00 | 0.00 | 0.00 | 40 | 1000.9 |
| 20260504204317 | 85 | 23 | 1.0 | 2.0 | 0.00 | 0.00 | 0.00 | 43 | 1001.1 |
| 20260504203337 | 84 | 135 | 3.0 | 4.0 | 0.00 | 0.00 | 0.00 | 42 | 1001.2 |
| 20260504202317 | 84 | 135 | 5.0 | 11.0 | 0.00 | 0.00 | 0.00 | 39 | 1001.4 |
| 20260504201317 | 85 | 135 | 4.0 | 6.0 | 0.00 | 0.00 | 0.00 | 39 | 1001.4 |
| 20260504200317 | 84 | 135 | 1.0 | 3.0 | 0.00 | 0.00 | 0.00 | 40 | 1001.5 |
| 20260504195317 | 84 | 135 | 3.0 | 6.0 | 0.00 | 0.00 | 0.00 | 43 | 1001.6 |
| 20260504194317 | 84 | 225 | 2.0 | 4.0 | 0.00 | 0.00 | 0.00 | 44 | 1001.7 |
| 20260504193317 | 83 | 0.0 | 1.0 | 0.00 | 0.00 | 0.00 | 44 | 1001.6 | |
| 20260504192317 | 82 | 113 | 4.0 | 7.0 | 0.00 | 0.00 | 0.00 | 41 | 1001.8 |
| 20260504191317 | 83 | 158 | 5.0 | 10.0 | 0.00 | 0.00 | 0.00 | 43 | 1001.8 |
| 20260504190317 | 82 | 203 | 3.0 | 5.0 | 0.00 | 0.00 | 0.00 | 44 | 1001.8 |
| 20260504185316 | 82 | 180 | 2.0 | 4.0 | 0.00 | 0.00 | 0.00 | 44 | 1001.7 |
| 20260504184316 | 81 | 225 | 3.0 | 6.0 | 0.00 | 0.00 | 0.00 | 44 | 1001.9 |
| 20260504183357 | 81 | 225 | 4.0 | 6.0 | 0.00 | 0.00 | 0.00 | 42 | 1001.9 |
| 20260504182317 | 81 | 23 | 2.0 | 7.0 | 0.00 | 0.00 | 0.00 | 44 | 1002.2 |
| 20260504181317 | 81 | 225 | 4.0 | 6.0 | 0.00 | 0.00 | 0.00 | 43 | 1002.1 |
| 20260504180317 | 81 | 135 | 3.0 | 5.0 | 0.00 | 0.00 | 0.00 | 45 | 1002.3 |
| 20260504175316 | 79 | 158 | 1.0 | 3.0 | 0.00 | 0.00 | 0.00 | 47 | 1002.3 |
| 20260504174336 | 79 | 203 | 1.0 | 3.0 | 0.00 | 0.00 | 0.00 | 46 | 1002.4 |
| 20260504173316 | 79 | 135 | 4.0 | 7.0 | 0.00 | 0.00 | 0.00 | 45 | 1002.6 |
| 20260504172316 | 79 | 225 | 2.0 | 8.0 | 0.00 | 0.00 | 0.00 | 45 | 1002.5 |
| 20260504171316 | 79 | 225 | 2.0 | 4.0 | 0.00 | 0.00 | 0.00 | 47 | 1002.6 |
| 20260504170316 | 79 | 203 | 4.0 | 7.0 | 0.00 | 0.00 | 0.00 | 46 | 1002.6 |
| 20260504160316 | 76 | 203 | 6.0 | 9.0 | 0.00 | 0.00 | 0.00 | 48 | 1002.7 |
| 20260504150316 | 72 | 225 | 4.0 | 8.0 | 0.00 | 0.00 | 0.00 | 52 | 1002.5 |
| 20260504140316 | 68 | 225 | 3.0 | 7.0 | 0.00 | 0.00 | 0.00 | 56 | 1002.7 |
| 20260504130316 | 65 | 0.0 | 2.0 | 0.00 | 0.00 | 0.00 | 59 | 1003.0 | |
| 20260504120316 | 62 | 0.0 | 0.0 | 0.00 | 0.00 | 0.00 | 63 | 1003.1 | |
| 20260504110316 | 55 | 0.0 | 1.0 | 0.00 | 0.00 | 0.00 | 80 | 1003.1 | |
| 20260504100316 | 55 | 0.0 | 0.0 | 0.00 | 0.00 | 0.00 | 84 | 1004.3 | |
| 20260504081315 | 58 | 0.0 | 0.0 | 0.00 | 0.00 | 0.00 | 75 | 1004.9 | |
| 20260504080317 | 58 | 0.0 | 0.0 | 0.00 | 0.00 | 0.00 | 73 | 1005.0 | |
| 20260504070317 | 64 | 0.0 | 0.0 | 0.00 | 0.00 | 0.00 | 62 | 1005.8 | |
| 20260504050337 | 69 | 225 | 1.0 | 1.0 | 0.00 | 0.00 | 0.00 | 52 | 1006.6 |
| 20260504045316 | 69 | 0.0 | 0.0 | 0.00 | 0.00 | 0.00 | 51 | 1007.3 | |
| 20260504044337 | 68 | 0.0 | 1.0 | 0.00 | 0.00 | 0.00 | 56 | 1008.0 | |
| 20260504043316 | 68 | 0.0 | 1.0 | 0.00 | 0.00 | 0.00 | 58 | 1008.0 | |
| 20260504042316 | 68 | 0.0 | 0.0 | 0.00 | 0.00 | 0.00 | 56 | 1007.4 | |
| 20260504041316 | 67 | 0.0 | 1.0 | 0.00 | 0.00 | 0.00 | 60 | 1007.3 | |
| 20260504040316 | 65 | 0.0 | 0.0 | 0.00 | 0.00 | 0.00 | 64 | 1007.3 | |
| 20260504035316 | 64 | 0.0 | 0.0 | 0.00 | 0.00 | 0.00 | 69 | 1007.4 | |
| 20260504034316 | 63 | 0.0 | 0.0 | 0.00 | 0.00 | 0.00 | 71 | 1007.5 | |
| 20260504033316 | 63 | 0.0 | 0.0 | 0.00 | 0.00 | 0.00 | 72 | 1007.6 | |
| 20260504032316 | 63 | 0.0 | 0.0 | 0.00 | 0.00 | 0.00 | 74 | 1007.5 | |
| 20260504031316 | 63 | 0.0 | 0.0 | 0.00 | 0.00 | 0.00 | 73 | 1007.5 | |
| 20260504030316 | 63 | 0.0 | 0.0 | 0.00 | 0.00 | 0.00 | 71 | 1007.2 | |
| 20260504025336 | 63 | 0.0 | 0.0 | 0.00 | 0.00 | 0.00 | 70 | 1007.2 |